SL-8 DEB, 23265

Orbit data source: Space-Track

SL-8 DEB, 23265 is space debris in LEO originally from a launch on Tue, 12 Feb 1991 UTC launched from the Plesetsk Missile And Space Complex (PKMTR). Debris objects in space refer to the collection of defunct objects orbiting the Earth. Examples of debris include non-operational satellites, rocket bodies, and fragments generated from explosions, collisions, or faulty payload assembly.

Loading next visibility...
Identifier
23265, 1991-009CW
Orbit
LEO
Country
Flag of CISCIS
Related business
Manufacturer
Unknown
Mission
Spacecraft
Bus & Motor
Unknown
Mass
Unknown
Launch date (UTC)
1991-02-12 (35 years ago)
Launch vehicle
Unknown
Launch site
Plesetsk Missile And Space Complex (PKMTR)
Object type
Payload
Rocket body
Debris
Shape & HBR
Unknown shape, 0.1 m
Radar Cross Section
Medium (>0.1 m² and <1 m²)

Expand to show TLE details & history
Last TLE update: 3 weeks ago

TLE from 3 weeks ago
0 SL-8 DEB
1 23265U 91009CW  26152.47151652  .00000353  00000-0  29851-2 0  9992
2 23265  73.9963 319.9331 0167376 140.2962 250.4470 12.30116100577950
Epoch: 2026-06-01T11:18Z
TLE epoch observation values (Epoch: 2026-06-01T11:18:59.027Z)
Latitude
27.77024°
Longitude
-91.12686°
Altitude
1,598.052 km
Speed
7.052 km/s
True Right ascension
21h 54m 18s
True Declination
27° 38' 37"
Sunlit
Object was in daylight at epoch
Visualization orbit readout
Latitude
Unknown
Longitude
Unknown
Altitude
Unknown
Speed
Unknown
Apparent Right ascension
Unknown
Apparent Declination
Unknown
Sunlit
N/A
Visualization observer readout
Local Sidereal Time
02:30:11
Azimuth
Unknown
Elevation
Unknown
Doppler factor
Unknown
Orbital elements
Apogee altitude
1,679.284 km
Perigee altitude
1,414 km
Semi-major axis
7,924.779 km
Eccentricity
0.01674
Inclination
73.9963°
RAAN
319.9331°
Arg. of periapsis
140.2962°
True anomaly
248.65248°
Mean anomaly
250.447°
Eccentric anomaly
249.54845°
Mean motion
3.07654 °/min
Orbital period
117.01 mins
BSTAR
0.0029851
Loading maneuver chart data...
Computing Atmospheric mass density...
Loading historical data...
Loading historical data...
Loading historical data...
Loading historical data...
Loading historical data...
Loading historical data...
Loading historical data...

Documentation

Showing up to 5 results
|